Weather reports worldwide

Advertisment
Nottingham/Watnall, United Kingdom (3354): temperature & dewpoint: 19.05.2018 04:00:00 - 25.05.2018 04:00:00 (BST)Nottingham/Watnall, United Kingdom (3354): temperature -20cm & temperature -100cm: 19.05.2018 04:00:00 - 25.05.2018 04:00:00 (BST)Nottingham/Watnall, United Kingdom (3354): wind speed & gusts: 19.05.2018 04:00:00 - 25.05.2018 04:00:00 (BST)Nottingham/Watnall, United Kingdom (3354): wind direction: 19.05.2018 04:00:00 - 25.05.2018 04:00:00 (BST)Nottingham/Watnall, United Kingdom (3354): reduced air pressure: 19.05.2018 04:00:00 - 25.05.2018 04:00:00 (BST)Nottingham/Watnall, United Kingdom (3354): visibility: 19.05.2018 04:00:00 - 25.05.2018 04:00:00 (BST)Nottingham/Watnall, United Kingdom (3354): sunshine duration: 19.05.2018 04:00:00 - 25.05.2018 04:00:00 (BST)Nottingham/Watnall, United Kingdom (3354): precipitation: 19.05.2018 04:00:00 - 25.05.2018 04:00:00 (BST)
Date & Time tt [°C] td [°C] tt -20cm [°C] tt -100cm [°C] ff [km/h] ff [kn] fx [km/h] fx [kn] dd ppp [hPa] vv [km] sd [min] rr [mm]
25.05.2018 04:00:00 10,3 9,0 - - 15 8 - - N 1019,6 7 - 0,0
25.05.2018 03:00:00 10,8 9,3 - - 16 9 - - N 1019,6 9 - 0,2
25.05.2018 02:00:00 11,1 9,8 - - 21 11 - - N 1019,8 7 - 0,2
25.05.2018 01:00:00 12,0 9,6 - - 15 8 - - NNE 1020,2 11 - 0,0
25.05.2018 00:00:00 12,9 9,2 - - 11 6 - - N 1020,6 23 - 0,0
24.05.2018 23:00:00 13,1 9,1 - - 15 8 - - NE 1020,9 26 - 0,0
24.05.2018 22:00:00 14,0 9,0 - - 15 8 - - ENE 1021,2 30 - 0,0
24.05.2018 21:00:00 15,1 9,3 - - 16 9 - - NE 1020,8 35 - 0,0
24.05.2018 20:00:00 16,4 9,1 - - 21 11 - - ENE 1020,4 40 - 0,0
24.05.2018 19:00:00 18,0 9,2 - - 16 9 - - ENE 1020,4 50 - 0,0
24.05.2018 18:00:00 19,3 7,5 - - 22 12 - - ENE 1020,3 70 - 0,0
24.05.2018 17:00:00 19,4 10,4 - - 22 12 - - NE 1020,5 40 - 0,0
24.05.2018 16:00:00 19,5 11,3 - - 18 10 - - ENE 1021,0 30 - 0,0
24.05.2018 15:00:00 19,0 10,9 - - 22 12 - - ENE 1021,5 28 - 0,0
24.05.2018 14:00:00 17,4 11,0 - - 15 8 - - NNE 1022,0 19 - 0,0
24.05.2018 13:00:00 15,4 10,7 - - 16 9 - - NE 1022,8 13 - 0,0
24.05.2018 12:00:00 12,4 9,1 - - 16 9 - - NE 1023,6 9 - 0,0
24.05.2018 11:00:00 11,1 8,7 - - 18 10 - - NE 1024,3 12 - 0,0
24.05.2018 10:00:00 10,0 7,8 15,7 13,9 16 9 - - NE 1024,6 14 - 0,0
24.05.2018 09:00:00 9,3 7,5 - - 16 9 - - NE 1025,0 12 - 0,0
24.05.2018 08:00:00 9,2 7,3 - - 18 10 - - NE 1024,8 13 - 0,0
24.05.2018 07:00:00 8,8 7,2 - - 15 8 - - NNE 1024,7 13 - 0,0
24.05.2018 06:00:00 8,4 7,0 - - 16 9 - - NNE 1024,9 12 - 0,0
24.05.2018 05:00:00 8,3 6,9 - - 13 7 - - NNE 1025,0 11 - 0,0
24.05.2018 04:00:00 8,3 6,9 - - 15 8 - - NNE 1025,2 12 - 0,0
24.05.2018 03:00:00 8,2 6,8 - - 18 10 - - NNE 1025,4 12 - 0,0
24.05.2018 02:00:00 8,1 6,8 - - 15 8 - - NNE 1026,3 11 - 0,0
24.05.2018 01:00:00 8,4 6,9 - - 15 8 - - NNE 1026,3 10 - 0,0
24.05.2018 00:00:00 8,6 7,1 - - 16 9 - - NE 1026,3 6 - 0,0
23.05.2018 23:00:00 9,0 7,3 - - 22 12 - - NE 1026,7 9 - 0,0
23.05.2018 22:00:00 9,9 7,6 - - 18 10 - - NE 1026,6 17 - 0,0
23.05.2018 21:00:00 11,1 7,9 - - 16 9 - - ENE 1026,4 20 - 0,0
23.05.2018 20:00:00 13,3 8,2 - - 21 11 - - ENE 1025,9 28 - 0,0
23.05.2018 19:00:00 15,2 8,8 - - 24 13 - - ENE 1025,2 30 - 0,0
23.05.2018 18:00:00 16,5 9,5 - - 18 10 - - NE 1025,1 35 - 0,0
23.05.2018 17:00:00 17,3 9,7 - - 21 11 - - ENE 1025,3 30 - 0,0
23.05.2018 16:00:00 17,8 9,8 - - 22 12 - - ENE 1025,4 29 - 0,0
23.05.2018 15:00:00 17,4 9,9 - - 15 8 - - NE 1025,7 21 - 0,0
23.05.2018 14:00:00 16,2 9,7 - - 18 10 - - ENE 1026,2 17 - 0,0
23.05.2018 13:00:00 15,0 9,1 - - 16 9 - - NE 1026,4 18 - 0,0
23.05.2018 12:00:00 14,5 9,2 - - 18 10 - - NE 1026,7 24 - 0,0
23.05.2018 11:00:00 11,9 7,7 - - 16 9 - - NNE 1026,9 20 - 0,0
23.05.2018 10:00:00 11,4 7,8 15,9 13,7 16 9 - - NE 1026,9 22 - 0,0
23.05.2018 09:00:00 10,9 7,6 - - 18 10 - - NE 1026,5 23 - 0,0
23.05.2018 08:00:00 10,1 7,1 - - 15 8 - - NE 1026,0 17 - 0,0
23.05.2018 07:00:00 9,5 6,7 - - 13 7 - - NNE 1025,8 18 - 0,0
23.05.2018 06:00:00 9,2 6,7 - - 15 8 - - NNE 1025,3 15 - 0,0
23.05.2018 05:00:00 9,4 6,9 - - 11 6 - - NNE 1024,8 13 - 0,0
23.05.2018 04:00:00 9,6 7,2 - - 13 7 - - NNE 1024,5 12 - 0,0
23.05.2018 03:00:00 9,5 7,3 - - 9 5 - - NNE 1024,4 12 - 0,0
23.05.2018 02:00:00 9,5 7,1 - - 11 6 - - NNE 1024,2 15 - 0,0
23.05.2018 01:00:00 9,8 7,1 - - 16 9 - - NNE 1024,3 15 - 0,0
23.05.2018 00:00:00 10,2 7,3 - - 13 7 - - NNE 1024,3 13 - 0,0
22.05.2018 23:00:00 10,5 7,4 - - 15 8 - - N 1024,0 19 - 0,0
22.05.2018 22:00:00 11,3 7,8 - - 11 6 - - N 1023,2 26 - 0,0
22.05.2018 21:00:00 13,2 8,1 - - 15 8 - - NE 1022,3 35 - 0,0
22.05.2018 20:00:00 14,9 9,0 - - 15 8 - - N 1021,5 30 - 0,0
22.05.2018 19:00:00 16,5 9,3 - - 21 11 - - N 1020,8 29 - 0,0
22.05.2018 18:00:00 18,1 9,6 - - 18 10 - - N 1020,3 30 - 0,0
22.05.2018 17:00:00 19,1 10,4 - - 21 11 - - N 1019,9 35 - 0,0
22.05.2018 16:00:00 19,6 9,8 - - 16 9 - - NNE 1019,5 50 - 0,0
22.05.2018 15:00:00 19,5 11,4 - - 21 11 - - NE 1019,5 40 - 0,0
22.05.2018 14:00:00 18,3 10,4 - - 18 10 - - NE 1019,7 35 - 0,0
22.05.2018 13:00:00 16,9 9,8 - - 16 9 - - NNE 1019,8 40 - 0,0
22.05.2018 12:00:00 15,5 9,5 - - 21 11 - - NNE 1020,0 27 - 0,0
22.05.2018 11:00:00 13,9 8,9 - - 22 12 50 27 N 1019,8 27 - 0,0
22.05.2018 10:00:00 12,5 8,2 15,7 13,7 28 15 - - N 1019,6 21 - 0,0
22.05.2018 09:00:00 12,1 8,4 - - 22 12 - - N 1019,2 23 - 0,0
22.05.2018 08:00:00 11,2 8,0 - - 18 10 - - N 1018,8 14 - 0,0
22.05.2018 07:00:00 10,7 8,2 - - 24 13 - - N 1018,4 10 - 0,0
22.05.2018 06:00:00 10,5 7,8 - - 21 11 - - N 1018,0 12 - 0,0
22.05.2018 05:00:00 10,9 7,5 - - 18 10 - - N 1017,5 16 - 0,0
22.05.2018 04:00:00 10,8 7,2 - - 16 9 - - N 1017,2 21 - 0,0
22.05.2018 03:00:00 10,8 7,6 - - 9 5 - - N 1017,4 19 - 0,0
22.05.2018 02:00:00 10,6 7,0 - - 4 2 - - N 1017,2 21 - 0,0
22.05.2018 01:00:00 11,4 7,1 - - 8 4 - - NNE 1017,2 22 - 0,0
22.05.2018 00:00:00 12,3 7,4 - - 8 4 - - NNE 1017,2 30 - 0,0
21.05.2018 23:00:00 14,2 7,6 - - 8 4 - - NNE 1017,1 50 - 0,0
21.05.2018 22:00:00 15,3 7,7 - - 9 5 - - NNE 1017,0 50 - 0,0
21.05.2018 21:00:00 17,2 8,3 - - 9 5 - - ENE 1016,6 60 - 0,0
21.05.2018 20:00:00 18,7 7,9 - - 15 8 - - ENE 1016,2 65 - 0,0
21.05.2018 19:00:00 20,8 8,8 - - 15 8 - - ENE 1015,7 65 - 0,0
21.05.2018 18:00:00 21,7 8,9 - - 15 8 - - E 1015,7 55 - 0,0
21.05.2018 17:00:00 22,2 8,0 - - 15 8 - - NE 1015,7 75 - 0,0
21.05.2018 16:00:00 22,2 9,9 - - 11 6 - - E 1016,0 35 - 0,0
21.05.2018 15:00:00 21,8 11,1 - - 16 9 - - ENE 1016,5 20 - 0,0
21.05.2018 14:00:00 21,4 11,0 - - 13 7 - - ENE 1017,0 19 - 0,0
21.05.2018 13:00:00 20,7 11,0 - - 11 6 - - NE 1017,3 17 - 0,0
21.05.2018 12:00:00 19,5 9,6 - - 8 4 - - ENE 1018,0 15 - 0,0
21.05.2018 11:00:00 17,9 7,7 - - 9 5 - - ENE 1018,4 22 - 0,0
21.05.2018 10:00:00 16,7 7,4 15,4 13,4 5 3 - - E 1018,7 20 - 0,0
21.05.2018 09:00:00 14,8 8,4 - - 5 3 - - ENE 1019,2 14 - 0,0
21.05.2018 08:00:00 12,2 9,6 - - 8 4 - - E 1019,7 11 - 0,0
21.05.2018 07:00:00 9,7 9,3 - - 2 1 - - NNE 1019,6 10 - 0,0
21.05.2018 06:00:00 8,2 7,6 - - 8 4 - - ESE 1019,6 6 - 0,0
21.05.2018 05:00:00 9,1 8,6 - - 4 2 - - NNE 1019,2 10 - 0,0
21.05.2018 04:00:00 8,9 8,0 - - 8 4 - - E 1019,8 9 - 0,0
21.05.2018 03:00:00 9,8 9,3 - - 5 3 - - ENE 1019,9 13 - 0,0
21.05.2018 02:00:00 10,6 9,7 - - 5 3 - - E 1019,9 18 - 0,0
21.05.2018 01:00:00 11,0 9,4 - - 5 3 - - ENE 1020,5 19 - 0,0
21.05.2018 00:00:00 12,0 9,8 - - 9 5 - - E 1020,6 22 - 0,0
20.05.2018 23:00:00 13,0 9,9 - - 13 7 - - E 1020,5 29 - 0,0
20.05.2018 22:00:00 14,7 10,5 - - 13 7 - - E 1020,4 30 - 0,0
20.05.2018 21:00:00 17,1 8,5 - - 11 6 - - ESE 1019,7 55 - 0,0
20.05.2018 20:00:00 18,9 8,4 - - 13 7 - - ESE 1019,3 40 - 0,0
20.05.2018 19:00:00 20,9 7,7 - - 8 4 - - SSE 1019,1 45 - 0,0
20.05.2018 18:00:00 21,5 8,1 - - 13 7 - - SE 1019,4 45 - 0,0
20.05.2018 17:00:00 21,9 8,3 - - 13 7 - - SE 1019,7 60 - 0,0
20.05.2018 16:00:00 22,3 7,9 - - 11 6 - - SSE 1020,2 55 - 0,0
20.05.2018 15:00:00 22,2 7,2 - - 13 7 - - SSE 1020,8 70 - 0,0
20.05.2018 14:00:00 21,6 7,8 - - 13 7 - - S 1021,2 40 - 0,0
20.05.2018 13:00:00 21,4 8,7 - - 8 4 - - S 1021,7 30 - 0,0
20.05.2018 12:00:00 19,5 7,5 - - 9 5 - - SE 1022,0 35 - 0,0
20.05.2018 11:00:00 19,2 9,1 - - 11 6 - - SE 1022,2 23 - 0,0
20.05.2018 10:00:00 17,4 9,3 15,0 13,2 9 5 - - S 1022,7 24 - 0,0
20.05.2018 09:00:00 14,5 9,1 - - 4 2 - - SW 1023,0 18 0 0,0
20.05.2018 08:00:00 13,2 9,0 - - 5 3 - - S 1022,9 15 36 0,0
20.05.2018 07:00:00 10,7 9,0 - - 2 1 - - ESE 1022,9 22 54 0,0
20.05.2018 06:00:00 8,0 6,9 - - 8 4 - - SSE 1022,8 29 0 0,0
20.05.2018 05:00:00 7,3 5,5 - - 2 1 - - SSE 1022,8 40 0 0,0
20.05.2018 04:00:00 8,5 5,5 - - 2 1 - - W 1022,8 40 0 0,0
20.05.2018 03:00:00 8,8 4,8 - - 4 2 - - SSE 1022,6 55 0 0,0
20.05.2018 02:00:00 9,6 4,1 - - 4 2 - - E 1022,8 65 0 0,0
20.05.2018 01:00:00 10,3 4,2 - - 8 4 - - ESE 1023,1 65 - 0,0
20.05.2018 00:00:00 11,7 5,0 - - 9 5 - - ESE 1022,9 65 0 0,0
19.05.2018 23:00:00 13,0 4,9 - - 9 5 - - ESE 1022,9 65 0 0,0
19.05.2018 22:00:00 14,5 6,0 - - 9 5 - - ESE 1022,7 60 0 0,0
19.05.2018 21:00:00 16,7 6,2 - - 9 5 - - SSE 1022,3 55 0 0,0
19.05.2018 20:00:00 18,5 6,7 - - 8 4 - - S 1021,9 45 42 0,0
19.05.2018 19:00:00 19,5 7,1 - - 9 5 - - SSE 1022,0 40 54 0,0
19.05.2018 18:00:00 20,4 6,1 - - 8 4 - - S 1022,1 35 60 0,0
19.05.2018 17:00:00 20,4 5,8 - - 8 4 - - S 1022,5 65 60 0,0
19.05.2018 16:00:00 20,0 5,5 - - 5 3 - - S 1022,9 40 60 0,0
19.05.2018 15:00:00 20,2 6,5 - - 8 4 - - SSW 1023,1 45 30 0,0
19.05.2018 14:00:00 20,0 6,8 - - 11 6 - - SE 1023,5 35 60 0,0
19.05.2018 13:00:00 19,2 7,4 - - 9 5 - - E 1023,9 30 18 0,0
19.05.2018 12:00:00 17,7 6,1 - - 4 2 - - WSW 1024,5 30 0 0,0
19.05.2018 11:00:00 17,4 7,1 - - 8 4 - - SE 1024,5 24 0 0,0
19.05.2018 10:00:00 15,6 8,0 14,5 13,2 5 3 - - ESE 1024,8 19 0 0,0
19.05.2018 09:00:00 13,6 8,5 - - 5 3 - - E 1024,9 19 0 0,0
19.05.2018 08:00:00 11,9 8,3 - - 4 2 - - ESE 1024,9 15 36 0,0
19.05.2018 07:00:00 8,5 7,7 - - 2 1 - - W 1024,6 15 60 0,0
19.05.2018 06:00:00 6,3 5,4 - - 2 1 - - ESE 1024,6 17 0 0,0
19.05.2018 05:00:00 6,2 4,3 - - 2 1 - - ESE 1024,5 11 0 0,0
19.05.2018 04:00:00 7,8 5,5 - - 8 4 - - W 1024,4 21 0 0,0

tt = temperature
td = dewpoint
tt -20cm = temperature -20cm
tt -100cm = temperature -100cm
ff = wind speed
fx = gusts
dd = wind direction
ppp = reduced air pressure
vv = visibility
sd = sunshine duration
rr = precipitation

Next stations